Seretse Khama, Botswana

3:49 PM CAT on August 29, 2016 (GMT +0200)
Sir Seretse Khama International

Weather History for FBSK - January, 2013

Change the Weather History Date:

Saturday, January 5, 2013

  Actual Average Record
Temperature  
Mean Temperature 70 °F -  
Max Temperature 77 °F 86 °F 98 °F (2005)
Min Temperature 64 °F 66 °F 62 °F (1999)
Cooling Degree Days 6    
Growing Degree Days 20 (Base 50)    
Moisture  
Dew Point 61 °F    
Average Humidity 69    
Maximum Humidity 83    
Minimum Humidity 56    
Precipitation  
Precipitation 0.00 in - - ()
Sea Level Pressure  
Sea Level Pressure 30.00 in    
Wind  
Wind Speed 8 mph ()    
Max Wind Speed 18 mph    
Max Gust Speed -    
Visibility 6.2 miles    
Events      
Averages and records for this station are not official NWS values.
T = Trace of Precipitation, MM = Missing Value Source: Averaged Metar Reports

Daily Weather History Graph

Daily Weather History Graph

Search for Another Location

Airport or City:

Trip Planner

Search our weather history database for the weather conditions in past years. The results will help you decide how hot, cold, wet, or windy it might be!

Date:

Astronomy

Jan. 05, 2013 Rise Set
Actual Time 5:33 AM CAT 7:09 PM CAT
Civil Twilight 5:08 AM CAT 7:35 PM CAT
Nautical Twilight 4:37 AM CAT 8:05 PM CAT
Astronomical Twilight 4:05 AM CAT 8:37 PM CAT
Moon No Moon Rise 12:38 PM CAT (1/5)
Length of Visible Light 14h 26m
Length of Day
13h 35m
Waning Gibbous, 47% of the Moon is Illuminated
Jan 5
Waning Gibbous
Jan 11
New
Jan 19
First Quarter
Jan 27
Full
Feb 3
Last Quarter

Hourly Weather History & Observations

Time (CAT) Temp. Dew Point Humidity Pressure Visibility Wind Dir Wind Speed Gust Speed Precip Events Conditions
1:00 AM 64.4 °F 53.6 °F 68% 29.92 in - West 4.6 mph - N/A   Clear
2:00 AM 66.2 °F 50.0 °F 56% 29.92 in - ENE 3.5 mph - N/A   Clear
4:00 AM 66.2 °F 51.8 °F 60% 29.95 in - ESE 8.1 mph - N/A   Clear
5:00 AM 69.8 °F 62.6 °F 78% 29.95 in - East 9.2 mph - N/A   Clear
6:00 AM 69.8 °F 64.4 °F 83% 29.98 in 6.2 mi ENE 10.4 mph - N/A   Mostly Cloudy
7:00 AM 69.8 °F 62.6 °F 78% 30.01 in 6.2 mi ENE 13.8 mph - N/A   Mostly Cloudy
8:00 AM 71.6 °F 64.4 °F 78% 30.04 in 6.2 mi ENE 13.8 mph - N/A   Overcast
9:00 AM 71.6 °F 62.6 °F 73% 30.04 in 6.2 mi ENE 18.4 mph - N/A   Overcast
10:00 AM 71.6 °F 62.6 °F 73% 30.04 in 6.2 mi ENE 16.1 mph - N/A   Overcast
11:00 AM 73.4 °F 62.6 °F 69% 30.01 in 6.2 mi NE 16.1 mph - N/A   Overcast
12:00 PM 75.2 °F 62.6 °F 65% 30.01 in 6.2 mi NE 15.0 mph - N/A   Overcast
1:00 PM 77.0 °F 62.6 °F 61% 30.01 in 6.2 mi NE 13.8 mph - N/A   Overcast
2:00 PM 77.0 °F 64.4 °F 65% 30.01 in 6.2 mi NE 12.7 mph - N/A   Overcast
3:00 PM 77.0 °F 62.6 °F 61% 29.98 in 6.2 mi NE 11.5 mph - N/A   Overcast
4:00 PM 77.0 °F 62.6 °F 61% 29.98 in 6.2 mi NE 10.4 mph - N/A   Overcast
5:00 PM 77.0 °F 62.6 °F 61% 29.98 in 6.2 mi NE 8.1 mph - N/A   Overcast
6:00 PM 77.0 °F 62.6 °F 61% 30.01 in 6.2 mi NNE 5.8 mph - N/A   Overcast
7:00 PM 75.2 °F 62.6 °F 65% 30.01 in - North - - N/A   Overcast
8:00 PM 73.4 °F 62.6 °F 69% 30.04 in 6.2 mi NNE 6.9 mph - N/A   Overcast
9:00 PM 71.6 °F 62.6 °F 73% 30.04 in - NNE 5.8 mph - N/A   Clear
10:00 PM 71.6 °F 62.6 °F 73% 30.04 in - NNE 5.8 mph - N/A   Clear
11:00 PM 69.8 °F 62.6 °F 78% 30.06 in - North 9.2 mph - N/A   Clear